Wind_Speed
18 18 16 13 10 9 9 8 9 10 11 11 13 14 16 16 16 15 14 13 12 11 9 8 7 6 5 4 3 2 1 1 1 2 3 3 3 4 4 4 5 5 6
17 16 14 11 9 9 8 7 8 9 10 11 13 15 16 16 16 15 14 13 12 11 10 9 8 7 6 5 4 3 2 1 1 1 2 3 3 4 4 5 4 5 6
16 14 12 10 10 9 8 8 8 9 10 11 13 15 16 16 15 14 14 14 13 12 10 10 9 8 7 6 5 3 3 2 1 1 2 2 3 3 4 5 5 5 6
16 13 11 10 10 8 7 7 7 9 10 11 13 14 15 15 14 14 16 15 14 13 12 11 10 9 8 7 6 4 3 2 1 0 1 1 2 3 4 5 5 5 6
15 12 11 10 9 7 6 6 6 7 9 10 12 14 15 15 15 15 16 15 15 14 13 12 10 10 9 8 7 6 5 3 2 1 1 2 2 3 3 4 5 5 6
14 12 10 9 8 6 5 5 6 7 8 10 12 14 15 16 16 16 16 15 15 14 13 13 12 11 10 10 9 8 7 5 4 3 3 3 3 4 4 4 5 5 6
13 11 9 8 7 6 5 5 5 6 7 10 13 14 15 15 15 16 16 15 15 14 14 14 13 12 11 11 10 10 9 7 6 6 5 5 5 5 6 6 7 7 8
12 11 9 8 7 6 5 5 5 6 7 10 13 14 15 15 16 16 16 16 15 15 14 14 13 13 12 12 12 11 11 10 9 9 8 8 8 9 9 9 10 10 10
12 11 10 9 7 6 5 5 5 6 7 9 11 13 14 15 16 17 17 16 15 15 14 14 13 13 13 13 13 13 13 12 12 12 12 12 12 12 12 13 13 13 13
11 11 10 9 7 6 6 5 4 6 7 8 10 12 13 14 15 16 17 16 16 15 15 14 14 14 14 14 15 15 15 15 15 15 15 15 15 15 16 16 16 17 17
12 11 10 9 7 6 6 4 3 5 7 8 9 11 12 14 15 15 16 16 16 16 15 15 15 14 14 15 16 17 17 17 18 18 18 19 19 19 19 19 20 20 21
13 11 10 10 8 6 5 4 4 4 7 7 8 10 11 13 14 14 16 16 16 16 16 16 16 15 16 16 17 18 19 19 19 20 20 21 21 22 22 23 23 24 24
15 13 11 10 9 8 6 5 4 4 4 7 8 9 11 12 12 13 14 15 16 17 17 17 18 18 18 18 18 19 20 20 20 21 22 22 23 24 25 26 26 27 28
16 15 13 11 9 8 7 6 5 5 5 6 8 9 10 11 12 13 13 14 15 15 16 18 18 19 19 19 20 21 22 22 23 24 24 25 26 27 28 29 29 30 30
18 16 14 13 11 10 9 8 7 7 6 7 8 10 11 12 12 12 13 14 14 15 15 16 17 18 19 20 21 22 23 23 24 25 26 27 28 30 31 31 32 33 33
20 18 17 15 14 12 11 11 10 10 9 9 9 10 11 12 13 13 13 14 15 16 16 16 17 18 19 20 22 23 24 24 26 27 29 29 30 32 34 35 35 35 35
21 19 18 16 16 15 14 13 13 12 11 11 10 10 12 13 14 15 14 15 15 16 17 18 19 19 20 22 24 24 25 26 27 29 30 31 32 32 34 35 36 36 36
23 22 21 20 19 17 17 16 16 15 14 13 13 12 12 13 14 14 15 16 17 18 19 20 21 21 22 24 25 26 27 27 29 29 30 31 32 32 34 35 36 37 38
25 24 23 22 21 20 19 18 18 17 17 16 16 15 15 15 16 17 17 18 19 20 21 22 23 24 24 26 27 28 29 29 30 32 32 33 34 35 36 37 38 38 39
27 27 25 24 23 22 21 20 20 20 19 18 19 18 19 19 20 20 20 21 21 22 23 24 24 25 26 27 29 30 32 32 33 35 36 36 37 38 39 39 41 41 42
29 27 27 25 25 24 23 23 22 22 22 22 21 20 20 21 21 22 23 23 24 25 26 27 28 29 29 30 31 32 34 35 37 38 38 39 40 41 41 42 43 43 44
29 28 27 27 26 25 24 23 23 23 24 24 23 22 23 23 23 24 25 26 27 29 30 30 31 31 32 32 33 34 35 37 39 39 40 40 41 42 43 44 44 45 46
30 29 28 28 28 27 25 25 25 25 25 25 25 25 25 26 26 27 27 29 30 30 31 32 32 33 34 34 34 35 36 37 38 40 40 42 43 45 46 46 47 48 48
30 29 28 28 27 27 27 27 27 27 27 27 27 28 27 27 28 30 31 31 32 33 33 34 34 34 35 35 36 37 38 38 40 41 43 44 45 46 47 48 48 49 49
29 29 28 28 28 28 28 27 27 27 28 28 28 28 29 30 30 30 31 31 32 33 33 33 34 34 34 35 36 38 39 41 43 44 46 47 48 49 49 49 49 49 49
28 28 28 29 29 29 29 29 28 28 28 29 29 29 30 29 30 30 31 31 31 32 32 33 33 34 35 37 38 40 41 43 45 46 48 49 50 51 51 51 51 51 52
Wind_Direction
321 321 319 313 306 299 289 271 253 242 235 229 223 217 215 214 213 215 215 212 210 209 207 209 213 218 217 216 207 202 194 166 62 54 47 37 32 31 31 28 25 21 21
321 321 317 314 306 300 289 268 255 245 232 226 219 216 215 210 211 213 214 209 208 208 209 209 211 215 216 215 209 205 200 179 112 62 51 45 39 36 32 24 21 22 24
325 325 319 315 309 300 285 273 258 246 235 227 216 215 215 212 213 216 212 209 209 208 207 208 211 216 217 214 210 202 191 177 146 74 63 56 46 42 30 31 29 26 21
325 325 323 318 313 304 286 269 253 244 238 230 223 220 218 218 216 218 213 212 213 211 209 208 212 215 214 212 209 204 198 192 196 231 31 24 22 24 19 18 14 14 13
324 326 324 325 322 308 293 271 251 240 237 231 224 218 217 219 220 218 212 213 213 212 212 213 216 216 214 214 213 211 210 211 225 254 292 318 336 347 350 354 355 359 1
322 325 325 330 329 318 299 277 255 244 235 223 218 215 218 220 219 215 210 211 212 213 216 216 216 216 216 217 218 217 218 224 237 252 274 294 308 319 323 326 331 337 340
322 325 324 330 330 320 306 283 263 246 228 219 216 216 217 219 214 212 211 211 212 215 218 217 216 218 221 221 221 222 226 233 244 255 267 279 291 301 307 310 313 317 322
318 321 323 326 327 318 304 280 265 245 227 220 216 216 215 217 215 214 214 212 212 215 219 219 219 221 226 228 228 230 234 240 249 259 267 274 282 289 294 298 302 304 308
313 317 320 321 323 320 310 284 255 240 231 222 219 216 213 216 217 215 213 213 215 217 220 221 223 227 232 234 236 238 243 247 252 260 266 272 278 283 287 291 294 297 299
309 314 317 315 312 310 310 302 260 236 231 228 224 217 215 214 213 213 214 216 217 220 224 228 230 234 239 241 242 245 250 253 257 263 267 271 275 280 284 287 290 292 294
303 310 311 310 310 309 303 297 276 242 232 225 222 219 218 215 216 217 214 216 221 225 230 233 236 240 245 247 248 251 254 257 262 267 270 272 275 279 282 285 287 289 291
296 299 303 307 306 307 307 302 287 261 233 223 224 222 222 217 217 217 218 222 227 232 235 238 241 244 249 251 253 256 259 261 264 268 271 273 276 278 280 282 284 286 287
288 289 290 296 303 301 297 293 284 264 245 233 231 232 228 225 223 222 224 228 232 236 239 244 247 249 252 255 259 261 263 265 267 270 272 275 276 277 280 282 283 284 284
278 279 279 284 290 291 288 285 277 268 257 247 242 239 233 228 228 231 233 234 240 243 243 246 249 252 255 258 264 266 267 268 269 271 273 275 277 279 281 282 283 283 283
272 274 276 276 277 280 278 276 275 271 265 258 251 241 237 237 234 236 238 243 248 248 247 248 253 255 258 261 266 268 269 270 272 273 274 276 278 280 282 283 284 284 283
270 270 269 267 268 270 273 274 271 267 266 261 258 251 246 244 241 243 247 248 250 251 253 254 257 262 263 264 268 271 272 272 274 276 277 279 281 282 283 284 284 284 283
268 267 265 263 265 266 266 266 268 267 264 263 264 263 257 252 249 249 252 254 255 256 258 260 263 265 268 271 273 275 275 275 276 278 280 282 284 285 285 285 286 286 285
262 262 261 262 262 262 263 264 264 263 263 263 262 261 260 255 254 254 256 257 259 260 262 263 265 268 272 275 275 276 278 280 280 281 283 285 286 288 288 287 287 286 286
260 260 259 259 259 258 260 263 262 260 262 262 261 260 258 258 258 258 260 261 263 265 267 269 269 270 273 276 278 279 281 283 283 284 285 286 287 288 288 289 289 288 287
256 256 255 256 257 256 257 260 263 262 263 264 263 261 260 261 262 261 263 264 266 268 270 272 272 273 275 278 280 282 283 284 285 285 286 286 288 289 289 290 290 288 287
255 253 254 255 255 255 256 260 263 263 262 264 265 263 263 263 265 266 268 268 269 271 273 275 275 276 278 280 283 284 285 285 285 286 286 287 288 290 290 290 290 289 287
252 251 253 253 254 256 258 260 263 265 265 266 268 266 265 265 264 270 272 272 273 274 275 276 278 279 280 282 283 284 285 286 287 288 289 290 290 290 290 290 290 289 288
246 250 252 253 253 256 258 260 262 265 267 268 268 269 271 269 266 269 272 274 275 275 276 276 278 280 282 283 283 284 286 287 288 289 290 291 291 291 290 290 290 289 289
247 248 250 251 253 256 259 260 262 265 266 268 270 271 273 271 271 272 273 274 275 276 277 278 280 281 282 284 285 286 289 290 290 290 291 292 292 292 292 292 291 290 289
245 247 248 250 251 254 259 262 264 267 268 267 268 271 273 271 271 273 275 275 277 280 280 282 283 284 286 287 288 290 290 290 290 291 291 292 292 293 293 292 291 290 289
247 248 250 253 255 257 260 262 264 266 268 269 269 270 272 272 272 273 276 278 278 278 281 283 285 287 289 291 292 292 292 292 291 291 292 292 293 293 293 293 292 291 290
Height
5851 5848 5845 5843 5841 5840 5840 5839 5841 5842 5844 5847 5849 5852 5856 5859 5863 5865 5868 5871 5873 5875 5877 5879 5880 5881 5882 5882 5882 5883 5883 5884 5884 5885 5885 5885 5885 5885 5885 5885 5885 5885 5884
5849 5846 5843 5842 5841 5840 5839 5839 5840 5841 5843 5846 5848 5851 5853 5856 5860 5863 5867 5870 5872 5874 5876 5878 5879 5880 5881 5882 5882 5883 5883 5884 5884 5885 5885 5885 5886 5885 5885 5885 5885 5885 5885
5847 5845 5842 5841 5840 5839 5838 5838 5839 5840 5842 5844 5846 5849 5852 5855 5858 5862 5865 5868 5870 5873 5875 5877 5878 5879 5880 5881 5882 5883 5883 5883 5884 5884 5885 5885 5886 5885 5886 5885 5885 5885 5885
5846 5843 5841 5840 5838 5837 5837 5837 5838 5839 5840 5842 5845 5848 5851 5854 5857 5860 5863 5866 5869 5871 5873 5875 5877 5878 5879 5881 5882 5882 5883 5883 5884 5884 5885 5885 5885 5885 5886 5886 5885 5885 5885
5844 5842 5840 5838 5836 5835 5835 5835 5836 5838 5839 5840 5843 5846 5849 5852 5855 5858 5861 5864 5867 5869 5871 5873 5875 5877 5878 5879 5881 5881 5882 5883 5884 5884 5884 5884 5885 5885 5885 5885 5885 5885 5885
5844 5841 5839 5837 5835 5834 5834 5834 5835 5836 5837 5839 5842 5844 5847 5850 5853 5856 5859 5862 5865 5867 5869 5872 5873 5875 5877 5878 5879 5880 5881 5882 5883 5883 5884 5884 5884 5884 5884 5884 5884 5884 5884
5842 5840 5838 5836 5835 5834 5834 5833 5834 5834 5836 5838 5840 5842 5845 5848 5851 5854 5857 5860 5863 5865 5868 5870 5871 5873 5875 5876 5878 5879 5880 5881 5882 5882 5883 5883 5883 5883 5883 5883 5883 5883 5883
5842 5839 5837 5836 5835 5834 5833 5833 5833 5834 5835 5836 5838 5841 5843 5846 5849 5852 5855 5858 5861 5863 5865 5868 5869 5871 5873 5875 5876 5877 5878 5879 5880 5881 5881 5882 5882 5882 5882 5882 5882 5882 5882
5841 5839 5837 5835 5834 5833 5832 5832 5832 5833 5834 5835 5836 5839 5841 5844 5847 5850 5853 5856 5859 5861 5863 5865 5867 5869 5871 5872 5874 5875 5876 5877 5878 5879 5879 5879 5879 5880 5879 5879 5879 5879 5879
5839 5838 5836 5834 5833 5832 5832 5831 5831 5832 5833 5834 5835 5837 5839 5842 5844 5847 5850 5853 5856 5858 5861 5863 5865 5866 5868 5870 5871 5873 5873 5874 5875 5875 5876 5876 5877 5877 5877 5876 5876 5875 5875
5837 5836 5835 5833 5832 5832 5831 5830 5830 5831 5832 5833 5834 5836 5837 5839 5842 5845 5848 5851 5853 5856 5858 5860 5862 5863 5865 5867 5868 5869 5870 5871 5871 5872 5872 5872 5873 5873 5873 5872 5872 5871 5871
5836 5835 5834 5833 5831 5831 5830 5830 5830 5830 5831 5832 5833 5834 5836 5838 5840 5842 5845 5848 5850 5852 5854 5856 5858 5860 5861 5863 5864 5865 5866 5867 5867 5868 5868 5868 5868 5868 5868 5868 5867 5866 5866
5833 5833 5832 5832 5831 5830 5830 5830 5829 5829 5830 5831 5832 5833 5835 5836 5838 5841 5843 5845 5847 5849 5850 5852 5854 5855 5857 5858 5859 5860 5861 5862 5863 5863 5863 5863 5863 5863 5862 5862 5861 5860 5860
5830 5830 5830 5830 5830 5830 5829 5829 5829 5829 5829 5830 5831 5832 5833 5835 5837 5838 5840 5842 5844 5845 5846 5847 5849 5851 5852 5853 5854 5855 5856 5857 5857 5857 5857 5857 5857 5856 5856 5855 5854 5853 5852
5827 5827 5828 5828 5829 5828 5828 5828 5829 5829 5829 5829 5830 5831 5831 5833 5834 5836 5837 5839 5840 5841 5842 5843 5845 5846 5847 5848 5849 5850 5850 5851 5851 5851 5850 5850 5850 5849 5848 5847 5846 5845 5844
5824 5824 5825 5825 5826 5826 5826 5827 5827 5827 5827 5828 5828 5829 5829 5830 5832 5833 5834 5836 5837 5838 5839 5840 5841 5842 5843 5843 5844 5844 5844 5844 5844 5844 5843 5843 5843 5842 5840 5839 5837 5836 5835
5819 5820 5820 5821 5822 5823 5824 5824 5824 5825 5825 5825 5826 5826 5827 5827 5829 5830 5831 5833 5834 5835 5836 5837 5837 5837 5837 5838 5838 5838 5838 5837 5837 5836 5836 5835 5834 5833 5831 5830 5828 5827 5825
5814 5815 5817 5818 5819 5819 5820 5820 5821 5822 5822 5823 5823 5823 5824 5825 5826 5827 5828 5828 5829 5830 5831 5831 5832 5832 5832 5832 5832 5831 5830 5830 5829 5828 5827 5826 5825 5824 5822 5820 5819 5817 5815
5808 5809 5811 5812 5813 5815 5815 5816 5817 5818 5818 5819 5819 5820 5820 5821 5822 5823 5823 5824 5824 5825 5825 5825 5825 5825 5825 5825 5824 5824 5823 5822 5821 5820 5818 5817 5816 5814 5812 5810 5809 5807 5804
5802 5803 5805 5806 5808 5809 5810 5811 5812 5813 5813 5814 5815 5815 5816 5816 5817 5818 5818 5818 5818 5818 5818 5818 5818 5818 5818 5817 5816 5815 5814 5813 5812 5811 5809 5807 5806 5804 5801 5799 5797 5795 5793
5794 5796 5798 5800 5802 5803 5804 5805 5806 5807 5808 5809 5809 5809 5810 5811 5811 5811 5811 5811 5812 5812 5812 5812 5811 5811 5810 5809 5808 5806 5805 5804 5802 5800 5799 5796 5794 5792 5790 5787 5785 5782 5780
5787 5789 5791 5793 5795 5797 5798 5800 5801 5801 5802 5802 5802 5803 5804 5804 5805 5805 5805 5805 5805 5805 5804 5803 5803 5802 5801 5800 5799 5797 5795 5793 5791 5789 5787 5785 5783 5780 5777 5775 5772 5769 5766
5779 5782 5785 5787 5789 5790 5792 5794 5795 5795 5796 5796 5796 5797 5797 5798 5798 5798 5798 5798 5797 5796 5795 5794 5793 5793 5791 5790 5788 5787 5785 5783 5780 5778 5775 5773 5770 5768 5765 5762 5758 5755 5752
5773 5776 5778 5780 5782 5784 5786 5787 5788 5789 5789 5790 5790 5790 5790 5790 5790 5790 5790 5789 5789 5788 5787 5784 5784 5783 5782 5780 5778 5776 5774 5772 5769 5766 5764 5761 5758 5754 5751 5748 5745 5741 5738
5767 5770 5772 5774 5776 5778 5779 5780 5781 5782 5782 5782 5782 5783 5783 5783 5782 5781 5780 5780 5780 5779 5777 5776 5775 5773 5772 5770 5768 5766 5763 5760 5758 5755 5751 5748 5745 5741 5737 5734 5730 5727 5723
5761 5764 5766 5768 5769 5771 5772 5773 5774 5774 5775 5775 5775 5775 5775 5774 5774 5773 5773 5771 5771 5770 5768 5767 5765 5763 5761 5759 5757 5754 5751 5748 5745 5742 5738 5734 5731 5727 5723 5718 5715 5711 5707